Погода в Сухиничи

Хотите узнать прогноз погоды в Сухиничи? Тогда Вам сюда: Погода в Сухиничи

Поиск расширенной информации на нашем сайте:

Полезная информация:

Новости сайта



02.01.2020
Опубликован Долгосрочный прогноз погоды по городам России и ближнего зарубежья на январь 2020 года.
Карты: Прогноз на январь и февраль 2020 года, Сравнение прогнозируемой аномалии приземной температуры воздуха на январь 2020 года по разным моделям.




Погода в Сухиничи - сегодня

Время (UTC), дата Ветер
(°,м/с) 
Видим.   Явления Облачность Т
(°С)
Тd
(°С)
f(%) Тe
(°С)
Pmin
(гПа)
dP
(гПа)
Po
(мм)
O2
(г/м3)
Тmin Tmax R s Состояние
почвы
12 03.03.21 270 (З) 10 км    5/5 600 м 
[Cu med, cong]
+4 -5.5 50 +2  1018.3  -1.3  742  295           
15 03.03.21 270 (З) 10 км    4/4 600 м 
[Sc]
+2 -4.5 62 +1  1016.8  -1.7  740  297           
18 03.03.21 250 (З) 10 км    ясно 
+0.8 -6.9 56 -1  1015.7  -1.1  740  298    +4       
21 03.03.21 250 (З) 10 км    9/9 600 м 
[Sc]
+1 -4.3 68 -1  1013.1  -2.5  738  297           
00 04.03.21 250 (З) 10 км    9/9 600 м 
[Sc]
+1.2 -4 68 1011.2  -1.8  736  296           
03 04.03.21 230 (ЮЗ) 10 км    9/9 600 м 
[Sc]
+0.8 -3.8 71 -1  1008.2  -3.1  734  295  +0.8         
06 04.03.21 230 (ЮЗ) 10 км    3/0 средняя, верхняя 
[Ac trans|Ci fib]
-1.5 -5.9 72 -4  1005.4  -2.9  732  297  -1.5      34  неравномерный
мокрый или
старый снег
100% 
09 04.03.21 260 (З) 10 км    10/6 600 м средняя 
[Sc|Ac As]
-1.4 -4.6 79 -4  1004.7  -0.7  731  297           
12 04.03.21 240 (ЮЗ) 10 км    9/9 600 м 
[Sc]
+0 -3.4 78 -2  1003  -1.4  730  295           
15 04.03.21 250 (З) 4000 м  дымка  10/10 600 м 
[St]
-0.6 -1.8 92 -2  1002.7  -0.4  730  295           
18 04.03.21 250 (З) 10 км  в посл. час снег  10/0 средняя 
[As op]
-1 -2.5 90 -3  1002.3  -0.5  730  295    +0  0.5     
21 04.03.21 350 (С) 4000 м  слаб. ливневой снег  9/9 600 м кучево-дожд. 
[Cb cap]
-1.4 -2.6 92 -3  1003.5  1.2  731  296           
00 05.03.21 290 (З) 10 км    9/9 600 м 
[Sc]
-4 -5.4 90 -4  1006  2.1  732  300           
03 05.03.21 270 (З) 10 км    8/8 600 м 
[Sc]
-6.2 -7.7 89 -6  1008.1  1.8  733  303  -6.5       
06 05.03.21 250 (З) 10 км    4/4 600 м средняя 
[Sc|Ac As]
-4.7 -5.7 93 -4  1009.5  1.6  735  302  -6.5    0.8  34  неравномерный
сухой снег
100% 
09 05.03.21 300 (СЗ) 10 км    8/8 600 м кучево-дожд. 
[Cb cap]
-1.5 -7.9 62 -3  1010.5  1.2  736  299           
12 05.03.21 240 (ЮЗ) 10 км    8/8 600 м 
[Sc]
+0.4 -10.7 43 1011.3  736  297           
15 05.03.21 350 (С) 10 км    6/6 600 м 
[Sc]
-2.5 -9.9 57 -4  1012.7  1.1  737  301      0.0     
18 05.03.21 250 (З) 10 км    8/8 600 м 
[Sc]
-5.1 -10.1 68 -5  1014.6  1.5  738  304    +0.4  0.0     
21 05.03.21 250 (З) 10 км    5/5 600 м средняя 
[Sc|Ac trans]
-5.6 -7.4 87 -5  1016  1.4  739  305           
00 06.03.21 280 (З) 4000 м  дымка{ливн. осадки}  ясно 
-8 -8.6 95 -8  1017.6  1.1  740  308           
03 06.03.21 290 (З) 4000 м  дымка  ясно 
-9.2 -9.9 95 -9  1018.5  0.8  741  310  -9.2    0.0     
06 06.03.21 270 (З) 10 км    ясно 
-10 -11.7 87 -10  1019.8  1.2  742  311  -11.5    0.0  34  неравномерный
сухой снег
100% 
09 06.03.21 270 (З) 10 км    8/3 600 м средняя, верхняя 
[Sc|Ac trans|Cc]
-4 -11.7 55 -4  1019.5  0.4  742  304           
12 06.03.21 270 (З) 10 км    8/6 600 м кучево-дожд., средняя 
[Cb cap|Ac trans]
-3.6 -11.1 56 -5  1018.5  -0.9  741  304           
Время (UTC), дата Ветер
(°,м/с) 
Видим.   Явления Облачность Т
(°С)
Тd
(°С)
f(%) Тe
(°С)
Pmin
(гПа)
dP
(гПа)
Po
(мм)
O2
(г/м3)
Тmin Tmax R s Состояние
почвы

Для получения пояснительной информации подведите курсор к названию столбца.

ПОГОДА в Сухиничи - архив

Всё, что Вы хотите узнать о погоде в Сухиничи - удобно и подробно!

Выберите нужную дату (начиная с 1 января 2019* года) и нажмите кнопку "Найти".
Будут отображены архивные сводки погоды по пункту Сухиничи, начиная с указанной даты.


Отображать данные в формате CSV (для использования в таблицах Excel)


Внимание! Наш архив погоды предназначен исключительно для личного некоммерческого использования в познавательных целях. Если Вам необходимы официальные справки о состоянии погоды (для производственных, юридических, коммерческих и т.п. целей), обращайтесь в органы Росгидромета.

*Примечание: данная дата относится к архиву по метеостанциям СССР (Россия, СНГ, Балтия).
Архив по метеостанциям Зарубежной Европы и Азии (кроме Китая) хранится 10 дней, по другим регионам земного шара (Китай, Африка, Америка, Австралия, Океания) - 1 день.

Сухиничи - район местоположения метеостанции


Название, широта, долгота, высота метеостанции:
Сухиничи 54.1°ш. 35.3°д. 238 м над ур. моря [Российская Федерация]

Дополнительная информация

В oтличие oт бoльшинства пoгoдных сайтoв мы публикуем пoдрoбную метеoинфoрмацию в детальнoм прoфессиoнальнoм фoрмате.

Характеристики температуры и влажнoсти вoздуха измеряются на высoте 2 м в тени вдали oт зданий и деревьев.
Скoрoсть ветра измеряется на высoте 10 м (на урoвне рoста челoвека скoрoсть ветра ниже в 1.5-2 раза). Если метеoстанция нахoдится в гoрoде или в лесу, тo скoрoсть ветра занижена на 2-4 м/с пo сравнению с oткрытым местoм. Скoрoсть ветра над акватoриями крупных рек и oзёр, а также на вершинах хoлмoв на 2-5 м/с выше, чем в oбычных услoвиях.
Атмoсфернoе давление в разных тoчках местнoсти мoжет значительнo oтличаться oт давления на метеoстанции, в зависимoсти oт услoвий рельефа (при пoдъёме на 10 м давление пoнижается примернo на 1 мм рт.ст.).